| time (UTC) | temp F | wind direction | speed MPH | gust MPH | rain 1hr in | rain 24hr in | rain mn in | humidity % | barometer mb |
| 20260508145505 | 63 | 27 | 1.0 | 6.0 | 0.00 | 0.00 | 0.00 | 44 | 1007.9 |
| 20260508144504 | 62 | 95 | 3.0 | 14.0 | 0.00 | 0.00 | 0.00 | 39 | 1007.9 |
| 20260508144004 | 62 | 234 | 3.0 | 12.0 | 0.00 | 0.00 | 0.00 | 46 | 1008.0 |
| 20260508143730 | 62 | 204 | 3.0 | 9.0 | 0.00 | 0.00 | 0.00 | 43 | 1008.0 |
| 20260508143004 | 62 | 231 | 2.0 | 9.0 | 0.00 | 0.00 | 0.00 | 45 | 1008.1 |
| 20260508142504 | 62 | 260 | 2.0 | 5.0 | 0.00 | 0.00 | 0.00 | 44 | 1008.1 |
| 20260508142004 | 62 | 121 | 2.0 | 5.0 | 0.00 | 0.00 | 0.00 | 44 | 1008.1 |
| 20260508141505 | 62 | 199 | 1.0 | 5.0 | 0.00 | 0.00 | 0.00 | 48 | 1008.1 |
| 20260508141006 | 61 | 225 | 1.0 | 5.0 | 0.00 | 0.00 | 0.00 | 46 | 1008.3 |
| 20260508140728 | 61 | 152 | 2.0 | 5.0 | 0.00 | 0.00 | 0.00 | 48 | 1008.2 |
| 20260508140005 | 61 | 51 | 2.0 | 8.0 | 0.00 | 0.00 | 0.00 | 48 | 1008.3 |
| 20260508135500 | 61 | 223 | 1.0 | 8.0 | 0.00 | 0.00 | 0.00 | 49 | 1008.2 |
| 20260508135001 | 60 | 79 | 1.0 | 4.0 | 0.00 | 0.00 | 0.00 | 53 | 1008.3 |
| 20260508134456 | 60 | 245 | 1.0 | 4.0 | 0.00 | 0.00 | 0.00 | 52 | 1008.3 |
| 20260508134217 | 59 | 112 | 1.0 | 4.0 | 0.00 | 0.00 | 0.00 | 54 | 1008.3 |
| 20260508133457 | 59 | 220 | 1.0 | 4.0 | 0.00 | 0.00 | 0.00 | 57 | 1008.3 |
| 20260508132957 | 58 | 224 | 0.0 | 4.0 | 0.00 | 0.00 | 0.00 | 57 | 1008.3 |
| 20260508132457 | 58 | 117 | 0.0 | 1.0 | 0.00 | 0.00 | 0.00 | 61 | 1008.4 |
| 20260508131957 | 56 | 110 | 0.0 | 1.0 | 0.00 | 0.00 | 0.00 | 59 | 1008.4 |
| 20260508131456 | 56 | 201 | 0.0 | 2.0 | 0.00 | 0.00 | 0.00 | 62 | 1008.5 |
| 20260508130956 | 55 | 223 | 0.0 | 2.0 | 0.00 | 0.00 | 0.00 | 65 | 1008.4 |
| 20260508125954 | 54 | 250 | 0.0 | 1.0 | 0.00 | 0.00 | 0.00 | 78 | 1008.5 |
| 20260508125454 | 53 | 250 | 0.0 | 1.0 | 0.00 | 0.00 | 0.00 | 81 | 1008.6 |
| 20260508125220 | 52 | 246 | 0.0 | 2.0 | 0.00 | 0.00 | 0.00 | 84 | 1008.6 |
| 20260508123954 | 50 | 210 | 0.0 | 1.0 | 0.00 | 0.00 | 0.00 | 89 | 1008.5 |
| 20260508123453 | 49 | 210 | 0.0 | 2.0 | 0.00 | 0.00 | 0.00 | 90 | 1008.4 |
| 20260508122954 | 48 | 173 | 0.0 | 2.0 | 0.00 | 0.00 | 0.00 | 89 | 1008.4 |
| 20260508122454 | 48 | 227 | 0.0 | 1.0 | 0.00 | 0.00 | 0.00 | 89 | 1008.4 |
| 20260508121954 | 47 | 178 | 0.0 | 1.0 | 0.00 | 0.00 | 0.00 | 89 | 1008.4 |
| 20260508121448 | 47 | 188 | 0.0 | 1.0 | 0.00 | 0.00 | 0.00 | 90 | 1008.4 |
| 20260508120948 | 46 | 188 | 0.0 | 1.0 | 0.00 | 0.00 | 0.00 | 90 | 1008.3 |
| 20260508120448 | 46 | 176 | 0.0 | 1.0 | 0.00 | 0.00 | 0.00 | 90 | 1008.4 |
| 20260508115949 | 45 | 176 | 0.0 | 0.0 | 0.00 | 0.00 | 0.00 | 90 | 1008.3 |
| 20260508115448 | 44 | 176 | 0.0 | 0.0 | 0.00 | 0.00 | 0.00 | 90 | 1008.2 |
| 20260508114949 | 44 | 176 | 0.0 | 0.0 | 0.00 | 0.00 | 0.00 | 90 | 1008.1 |
| 20260508114710 | 44 | 176 | 0.0 | 0.0 | 0.00 | 0.00 | 0.00 | 90 | 1008.1 |
| 20260508113948 | 43 | 176 | 0.0 | 0.0 | 0.00 | 0.00 | 0.00 | 90 | 1007.9 |
| 20260508113713 | 42 | 176 | 0.0 | 0.0 | 0.00 | 0.00 | 0.00 | 90 | 1007.9 |
| 20260508112948 | 42 | 176 | 0.0 | 0.0 | 0.00 | 0.00 | 0.00 | 90 | 1007.8 |
| 20260508112715 | 41 | 176 | 0.0 | 0.0 | 0.00 | 0.00 | 0.00 | 90 | 1007.7 |
| 20260508112206 | 41 | 176 | 0.0 | 0.0 | 0.00 | 0.00 | 0.00 | 90 | 1007.7 |
| 20260508111448 | 41 | 176 | 0.0 | 0.0 | 0.00 | 0.00 | 0.00 | 90 | 1007.7 |
| 20260508110948 | 40 | 176 | 0.0 | 0.0 | 0.00 | 0.00 | 0.00 | 89 | 1007.7 |
| 20260508110448 | 40 | 176 | 0.0 | 0.0 | 0.00 | 0.00 | 0.00 | 89 | 1007.6 |
| 20260508105448 | 40 | 176 | 0.0 | 0.0 | 0.00 | 0.00 | 0.00 | 89 | 1007.6 |
| 20260508104441 | 40 | 176 | 0.0 | 0.0 | 0.00 | 0.00 | 0.00 | 89 | 1007.4 |
| 20260508103935 | 39 | 176 | 0.0 | 0.0 | 0.00 | 0.00 | 0.00 | 89 | 1007.4 |
| 20260508103429 | 39 | 176 | 0.0 | 0.0 | 0.00 | 0.00 | 0.00 | 89 | 1007.3 |
| 20260508102924 | 39 | 176 | 0.0 | 0.0 | 0.00 | 0.00 | 0.00 | 89 | 1007.2 |
| 20260508102417 | 39 | 176 | 0.0 | 0.0 | 0.00 | 0.00 | 0.00 | 89 | 1007.1 |
| 20260508101911 | 39 | 176 | 0.0 | 0.0 | 0.00 | 0.00 | 0.00 | 89 | 1007.1 |
| 20260508101406 | 40 | 176 | 0.0 | 0.0 | 0.00 | 0.00 | 0.00 | 89 | 1007.0 |
| 20260508100900 | 40 | 176 | 0.0 | 0.0 | 0.00 | 0.00 | 0.00 | 89 | 1006.9 |
| 20260508100354 | 40 | 176 | 0.0 | 0.0 | 0.00 | 0.00 | 0.00 | 89 | 1006.9 |
| 20260508095847 | 40 | 176 | 0.0 | 0.0 | 0.00 | 0.00 | 0.00 | 89 | 1006.8 |
| 20260508095342 | 40 | 176 | 0.0 | 0.0 | 0.00 | 0.00 | 0.00 | 89 | 1006.8 |
| 20260508094836 | 41 | 176 | 0.0 | 0.0 | 0.00 | 0.00 | 0.00 | 89 | 1006.8 |
| 20260508094330 | 41 | 176 | 0.0 | 0.0 | 0.00 | 0.00 | 0.00 | 89 | 1006.9 |
| 20260508093824 | 41 | 176 | 0.0 | 1.0 | 0.00 | 0.00 | 0.00 | 89 | 1006.8 |
| 20260508093318 | 42 | 176 | 0.0 | 1.0 | 0.00 | 0.00 | 0.00 | 89 | 1006.8 |
| 20260508092811 | 42 | 176 | 0.0 | 1.0 | 0.00 | 0.00 | 0.00 | 89 | 1006.7 |
| 20260508092313 | 42 | 176 | 0.0 | 1.0 | 0.00 | 0.00 | 0.00 | 89 | 1006.7 |
| 20260508091800 | 42 | 176 | 0.0 | 0.0 | 0.00 | 0.00 | 0.00 | 89 | 1006.6 |
| 20260508091517 | 42 | 176 | 0.0 | 1.0 | 0.00 | 0.00 | 0.00 | 89 | 1006.6 |
| 20260508090748 | 42 | 176 | 0.0 | 1.0 | 0.00 | 0.00 | 0.00 | 89 | 1006.5 |
| 20260508090242 | 42 | 176 | 0.0 | 1.0 | 0.00 | 0.00 | 0.00 | 89 | 1006.5 |
| 20260508085737 | 42 | 176 | 0.0 | 0.0 | 0.00 | 0.00 | 0.00 | 89 | 1006.4 |
| 20260508085230 | 43 | 176 | 0.0 | 0.0 | 0.00 | 0.00 | 0.00 | 89 | 1006.4 |
| 20260508084724 | 43 | 176 | 0.0 | 0.0 | 0.00 | 0.00 | 0.00 | 89 | 1006.3 |
| 20260508084220 | 43 | 176 | 0.0 | 0.0 | 0.00 | 0.00 | 0.00 | 89 | 1006.2 |
| 20260508083711 | 43 | 176 | 0.0 | 0.0 | 0.00 | 0.00 | 0.00 | 89 | 1006.2 |
| 20260508083426 | 43 | 176 | 0.0 | 0.0 | 0.00 | 0.00 | 0.00 | 89 | 1006.1 |
| 20260508082700 | 43 | 176 | 0.0 | 0.0 | 0.00 | 0.00 | 0.00 | 89 | 1006.1 |
| 20260508082154 | 43 | 176 | 0.0 | 0.0 | 0.00 | 0.00 | 0.00 | 89 | 1006.1 |
| 20260508081648 | 43 | 176 | 0.0 | 0.0 | 0.00 | 0.00 | 0.00 | 89 | 1006.1 |
| 20260508081142 | 43 | 176 | 0.0 | 0.0 | 0.00 | 0.00 | 0.00 | 89 | 1006.0 |
| 20260508080635 | 43 | 176 | 0.0 | 0.0 | 0.00 | 0.00 | 0.00 | 89 | 1006.0 |
| 20260508080130 | 43 | 176 | 0.0 | 0.0 | 0.00 | 0.00 | 0.00 | 89 | 1005.9 |
| 20260508075624 | 43 | 176 | 0.0 | 0.0 | 0.00 | 0.00 | 0.00 | 89 | 1005.8 |
| 20260508075341 | 43 | 176 | 0.0 | 0.0 | 0.00 | 0.00 | 0.00 | 89 | 1005.8 |
| 20260508074612 | 43 | 176 | 0.0 | 0.0 | 0.00 | 0.00 | 0.00 | 89 | 1005.8 |
| 20260508074105 | 43 | 176 | 0.0 | 0.0 | 0.00 | 0.00 | 0.00 | 89 | 1005.7 |
| 20260508073559 | 43 | 176 | 0.0 | 0.0 | 0.00 | 0.00 | 0.00 | 89 | 1005.6 |
| 20260508073055 | 43 | 176 | 0.0 | 0.0 | 0.00 | 0.00 | 0.00 | 89 | 1005.4 |
| 20260508072547 | 44 | 176 | 0.0 | 0.0 | 0.00 | 0.00 | 0.00 | 89 | 1005.4 |
| 20260508072042 | 44 | 176 | 0.0 | 0.0 | 0.00 | 0.00 | 0.00 | 89 | 1005.2 |
| 20260508071535 | 44 | 176 | 0.0 | 0.0 | 0.00 | 0.00 | 0.00 | 89 | 1005.2 |
| 20260508071247 | 44 | 176 | 0.0 | 0.0 | 0.00 | 0.00 | 0.00 | 89 | 1005.1 |
| 20260508070524 | 44 | 176 | 0.0 | 0.0 | 0.00 | 0.00 | 0.00 | 89 | 1005.0 |
| 20260508070018 | 44 | 176 | 0.0 | 0.0 | 0.00 | 0.00 | 0.00 | 89 | 1004.9 |
| 20260508065512 | 45 | 176 | 0.0 | 0.0 | 0.00 | 0.00 | 0.00 | 89 | 1004.8 |
| 20260508065006 | 45 | 176 | 0.0 | 0.0 | 0.00 | 0.00 | 0.00 | 89 | 1004.7 |
| 20260508064500 | 45 | 176 | 0.0 | 0.0 | 0.00 | 0.00 | 0.00 | 89 | 1004.7 |
| 20260508063954 | 45 | 176 | 0.0 | 0.0 | 0.00 | 0.00 | 0.00 | 89 | 1004.7 |
| 20260508063448 | 45 | 176 | 0.0 | 0.0 | 0.00 | 0.00 | 0.00 | 89 | 1004.7 |
| 20260508062942 | 45 | 176 | 0.0 | 0.0 | 0.00 | 0.00 | 0.00 | 89 | 1004.6 |
| 20260508062436 | 46 | 176 | 0.0 | 0.0 | 0.00 | 0.00 | 0.00 | 89 | 1004.6 |
| 20260508062148 | 46 | 176 | 0.0 | 0.0 | 0.00 | 0.00 | 0.00 | 89 | 1004.6 |
| 20260508061424 | 46 | 176 | 0.0 | 0.0 | 0.00 | 0.00 | 0.00 | 89 | 1004.5 |
| 20260508060918 | 46 | 176 | 0.0 | 0.0 | 0.00 | 0.00 | 0.00 | 89 | 1004.5 |
| 20260508060412 | 47 | 176 | 0.0 | 0.0 | 0.00 | 0.01 | 0.00 | 89 | 1004.4 |
| 20260508060125 | 47 | 176 | 0.0 | 0.0 | 0.00 | 0.01 | 0.00 | 89 | 1004.5 |
| 20260508055401 | 47 | 176 | 0.0 | 0.0 | 0.00 | 0.01 | 0.00 | 89 | 1004.5 |
| 20260508054854 | 47 | 176 | 0.0 | 0.0 | 0.00 | 0.01 | 0.00 | 89 | 1004.4 |
| 20260508054348 | 47 | 176 | 0.0 | 1.0 | 0.00 | 0.01 | 0.00 | 89 | 1004.4 |
| 20260508053556 | 47 | 169 | 0.0 | 0.0 | 0.00 | 0.01 | 0.00 | 89 | 1004.4 |
| 20260508052830 | 47 | 169 | 0.0 | 2.0 | 0.00 | 0.03 | 0.00 | 89 | 1004.4 |
| 20260508052547 | 47 | 169 | 0.0 | 2.0 | 0.00 | 0.05 | 0.00 | 89 | 1004.4 |
| 20260508051818 | 47 | 172 | 0.0 | 2.0 | 0.00 | 0.06 | 0.00 | 89 | 1004.5 |
| 20260508051312 | 48 | 205 | 0.0 | 3.0 | 0.00 | 0.10 | 0.00 | 89 | 1004.4 |
| 20260508050805 | 48 | 229 | 0.0 | 3.0 | 0.00 | 0.12 | 0.00 | 89 | 1004.4 |
| 20260508050300 | 48 | 223 | 0.0 | 3.0 | 0.00 | 0.14 | 0.00 | 89 | 1004.3 |
| 20260508045754 | 48 | 207 | 0.0 | 3.0 | 0.00 | 0.16 | 0.00 | 89 | 1004.3 |
| 20260508045247 | 48 | 206 | 0.0 | 2.0 | 0.00 | 0.17 | 0.00 | 89 | 1004.3 |
| 20260508044742 | 48 | 255 | 0.0 | 2.0 | 0.00 | 0.18 | 0.00 | 89 | 1004.2 |
| 20260508044235 | 48 | 160 | 0.0 | 2.0 | 0.00 | 0.19 | 0.00 | 88 | 1004.2 |
| 20260508043731 | 48 | 217 | 0.0 | 2.0 | 0.00 | 0.27 | 0.00 | 88 | 1004.2 |
| 20260508043224 | 48 | 229 | 0.0 | 1.0 | 0.00 | 0.28 | 0.00 | 88 | 1004.1 |
| 20260508042717 | 48 | 225 | 0.0 | 3.0 | 0.00 | 0.28 | 0.00 | 88 | 1004.1 |
| 20260508042213 | 48 | 275 | 0.0 | 3.0 | 0.00 | 0.28 | 0.00 | 88 | 1004.1 |
| 20260508041928 | 48 | 238 | 0.0 | 2.0 | 0.00 | 0.28 | 0.00 | 88 | 1004.0 |
| 20260508041206 | 48 | 190 | 0.0 | 4.0 | 0.00 | 0.28 | 0.00 | 88 | 1004.0 |
| 20260508040704 | 48 | 252 | 0.0 | 4.0 | 0.00 | 0.28 | 0.00 | 88 | 1003.9 |
| 20260508040201 | 49 | 200 | 1.0 | 3.0 | 0.00 | 0.28 | 0.00 | 88 | 1003.9 |
| 20260508035659 | 49 | 221 | 1.0 | 2.0 | 0.00 | 0.28 | 0.28 | 88 | 1003.9 |
| 20260508035159 | 49 | 235 | 0.0 | 2.0 | 0.00 | 0.28 | 0.28 | 88 | 1003.9 |
| 20260508034659 | 49 | 179 | 0.0 | 3.0 | 0.00 | 0.28 | 0.28 | 88 | 1003.8 |
| 20260508034159 | 49 | 233 | 1.0 | 3.0 | 0.00 | 0.28 | 0.28 | 88 | 1003.8 |
| 20260508033659 | 49 | 221 | 1.0 | 3.0 | 0.00 | 0.28 | 0.28 | 88 | 1003.8 |
| 20260508033425 | 49 | 191 | 1.0 | 4.0 | 0.00 | 0.28 | 0.28 | 88 | 1003.7 |
| 20260508032657 | 49 | 234 | 0.0 | 4.0 | 0.00 | 0.28 | 0.28 | 88 | 1003.8 |
| 20260508032158 | 49 | 199 | 0.0 | 2.0 | 0.00 | 0.28 | 0.28 | 88 | 1003.8 |
| 20260508031652 | 49 | 174 | 0.0 | 2.0 | 0.00 | 0.28 | 0.28 | 88 | 1003.8 |
| 20260508030641 | 48 | 174 | 0.0 | 3.0 | 0.00 | 0.28 | 0.28 | 88 | 1003.8 |
| 20260508030134 | 48 | 198 | 0.0 | 3.0 | 0.00 | 0.28 | 0.28 | 88 | 1003.7 |
| 20260508025629 | 48 | 221 | 0.0 | 2.0 | 0.00 | 0.28 | 0.28 | 88 | 1003.7 |
| 20260508025344 | 48 | 221 | 0.0 | 3.0 | 0.00 | 0.28 | 0.28 | 88 | 1003.7 |
| 20260508024617 | 48 | 216 | 0.0 | 3.0 | 0.00 | 0.28 | 0.28 | 88 | 1003.7 |
| 20260508024109 | 48 | 224 | 0.0 | 1.0 | 0.00 | 0.28 | 0.28 | 88 | 1003.8 |
| 20260508023607 | 48 | 224 | 0.0 | 1.0 | 0.00 | 0.28 | 0.28 | 87 | 1003.7 |
| 20260508023059 | 48 | 224 | 0.0 | 0.0 | 0.00 | 0.28 | 0.28 | 87 | 1003.8 |
| 20260508022558 | 48 | 224 | 0.0 | 0.0 | 0.00 | 0.28 | 0.28 | 87 | 1003.8 |
| 20260508022056 | 48 | 224 | 0.0 | 0.0 | 0.00 | 0.28 | 0.28 | 87 | 1003.8 |
| 20260508021556 | 48 | 224 | 0.0 | 0.0 | 0.00 | 0.28 | 0.28 | 87 | 1003.8 |
| 20260508021055 | 48 | 224 | 0.0 | 1.0 | 0.00 | 0.28 | 0.28 | 87 | 1003.7 |
| 20260508020554 | 48 | 224 | 0.0 | 1.0 | 0.00 | 0.28 | 0.28 | 86 | 1003.7 |
| 20260508020052 | 48 | 200 | 0.0 | 1.0 | 0.00 | 0.28 | 0.28 | 86 | 1003.7 |
| 20260508015047 | 49 | 200 | 0.0 | 1.0 | 0.00 | 0.28 | 0.28 | 85 | 1003.6 |
| 20260508014546 | 49 | 234 | 0.0 | 1.0 | 0.00 | 0.28 | 0.28 | 85 | 1003.5 |
| 20260508014309 | 49 | 234 | 0.0 | 0.0 | 0.00 | 0.28 | 0.28 | 85 | 1003.5 |
| 20260508013541 | 49 | 235 | 0.0 | 1.0 | 0.00 | 0.28 | 0.28 | 84 | 1003.5 |
| 20260508013041 | 49 | 235 | 0.0 | 2.0 | 0.00 | 0.28 | 0.28 | 84 | 1003.6 |
| 20260508012801 | 50 | 235 | 0.0 | 2.0 | 0.00 | 0.28 | 0.28 | 84 | 1003.6 |
| 20260508012041 | 50 | 223 | 0.0 | 2.0 | 0.00 | 0.28 | 0.28 | 84 | 1003.5 |
| 20260508011541 | 50 | 230 | 0.0 | 2.0 | 0.00 | 0.28 | 0.28 | 83 | 1003.4 |
| 20260508011041 | 50 | 216 | 0.0 | 1.0 | 0.00 | 0.28 | 0.28 | 83 | 1003.2 |
| 20260508010541 | 50 | 217 | 0.0 | 1.0 | 0.00 | 0.28 | 0.28 | 83 | 1003.1 |
| 20260508010040 | 50 | 214 | 0.0 | 2.0 | 0.00 | 0.28 | 0.28 | 82 | 1003.1 |
| 20260508005537 | 50 | 214 | 0.0 | 2.0 | 0.00 | 0.28 | 0.28 | 82 | 1003.0 |
| 20260508005257 | 50 | 199 | 0.0 | 3.0 | 0.00 | 0.28 | 0.28 | 82 | 1002.9 |
| 20260508004531 | 50 | 233 | 0.0 | 3.0 | 0.00 | 0.28 | 0.28 | 81 | 1002.7 |
| 20260508004024 | 51 | 184 | 0.0 | 0.0 | 0.00 | 0.28 | 0.28 | 80 | 1002.7 |
| 20260508003519 | 51 | 184 | 0.0 | 0.0 | 0.00 | 0.28 | 0.28 | 79 | 1002.7 |
| 20260508003015 | 51 | 184 | 0.0 | 0.0 | 0.00 | 0.28 | 0.28 | 78 | 1002.7 |
| 20260508002506 | 52 | 184 | 0.0 | 1.0 | 0.00 | 0.28 | 0.28 | 76 | 1002.6 |
| 20260508002224 | 52 | 184 | 0.0 | 2.0 | 0.00 | 0.28 | 0.28 | 76 | 1002.5 |
| 20260508001454 | 52 | 191 | 0.0 | 1.0 | 0.00 | 0.28 | 0.28 | 74 | 1002.5 |
| 20260508000948 | 53 | 224 | 0.0 | 0.0 | 0.00 | 0.28 | 0.28 | 72 | 1002.3 |
| 20260508000444 | 54 | 224 | 0.0 | 0.0 | 0.00 | 0.28 | 0.28 | 71 | 1002.4 |
| 20260507235936 | 54 | 224 | 0.0 | 1.0 | 0.00 | 0.28 | 0.28 | 70 | 1002.3 |
| 20260507235431 | 55 | 224 | 0.0 | 1.0 | 0.00 | 0.28 | 0.28 | 69 | 1002.3 |
| 20260507234925 | 55 | 224 | 0.0 | 1.0 | 0.00 | 0.28 | 0.28 | 67 | 1002.2 |
| 20260507234419 | 56 | 224 | 0.0 | 1.0 | 0.00 | 0.28 | 0.28 | 67 | 1002.2 |
| 20260507233914 | 56 | 224 | 0.0 | 2.0 | 0.00 | 0.28 | 0.28 | 66 | 1002.1 |
| 20260507233406 | 57 | 242 | 0.0 | 2.0 | 0.00 | 0.28 | 0.28 | 64 | 1002.0 |
| 20260507232901 | 57 | 233 | 0.0 | 2.0 | 0.00 | 0.28 | 0.28 | 63 | 1002.0 |
| 20260507232354 | 58 | 212 | 0.0 | 2.0 | 0.00 | 0.28 | 0.28 | 63 | 1001.9 |
| 20260507231849 | 59 | 236 | 0.0 | 2.0 | 0.00 | 0.28 | 0.28 | 61 | 1001.8 |
| 20260507231344 | 60 | 181 | 0.0 | 4.0 | 0.00 | 0.28 | 0.28 | 60 | 1001.8 |
| 20260507230836 | 60 | 191 | 0.0 | 4.0 | 0.00 | 0.28 | 0.28 | 58 | 1001.8 |
| 20260507230329 | 61 | 228 | 0.0 | 1.0 | 0.00 | 0.28 | 0.28 | 58 | 1001.8 |
| 20260507225823 | 62 | 227 | 0.0 | 2.0 | 0.00 | 0.28 | 0.28 | 57 | 1001.8 |
| 20260507225324 | 62 | 240 | 0.0 | 2.0 | 0.00 | 0.28 | 0.28 | 57 | 1001.7 |
| 20260507224821 | 62 | 238 | 1.0 | 2.0 | 0.00 | 0.28 | 0.28 | 58 | 1001.6 |
| 20260507223817 | 63 | 236 | 1.0 | 5.0 | 0.00 | 0.28 | 0.28 | 53 | 1001.5 |
| 20260507223315 | 63 | 250 | 1.0 | 5.0 | 0.00 | 0.28 | 0.28 | 52 | 1001.6 |
| 20260507222815 | 64 | 242 | 0.0 | 4.0 | 0.00 | 0.28 | 0.28 | 51 | 1001.6 |
| 20260507222315 | 64 | 231 | 0.0 | 3.0 | 0.00 | 0.28 | 0.28 | 55 | 1001.5 |
| 20260507221817 | 64 | 231 | 0.0 | 3.0 | 0.00 | 0.28 | 0.28 | 53 | 1001.5 |
| 20260507221311 | 65 | 242 | 0.0 | 2.0 | 0.00 | 0.28 | 0.28 | 52 | 1001.5 |
| 20260507220811 | 65 | 227 | 0.0 | 1.0 | 0.00 | 0.28 | 0.28 | 51 | 1001.6 |
| 20260507220311 | 66 | 246 | 0.0 | 1.0 | 0.00 | 0.28 | 0.28 | 51 | 1001.5 |
| 20260507215812 | 66 | 85 | 0.0 | 1.0 | 0.00 | 0.28 | 0.28 | 52 | 1001.5 |
| 20260507215309 | 66 | 85 | 0.0 | 1.0 | 0.00 | 0.28 | 0.28 | 52 | 1001.6 |
| 20260507214807 | 66 | 116 | 0.0 | 1.0 | 0.00 | 0.28 | 0.28 | 53 | 1001.7 |
| 20260507214304 | 66 | 74 | 0.0 | 2.0 | 0.00 | 0.28 | 0.28 | 55 | 1001.7 |
| 20260507213301 | 65 | 240 | 1.0 | 3.0 | 0.00 | 0.28 | 0.28 | 51 | 1001.6 |
| 20260507212759 | 65 | 81 | 0.0 | 2.0 | 0.00 | 0.28 | 0.28 | 56 | 1001.6 |
| 20260507212257 | 65 | 206 | 0.0 | 4.0 | 0.00 | 0.28 | 0.28 | 54 | 1001.5 |
| 20260507211755 | 64 | 89 | 0.0 | 4.0 | 0.00 | 0.28 | 0.28 | 57 | 1001.5 |
| 20260507211257 | 64 | 261 | 1.0 | 3.0 | 0.00 | 0.28 | 0.28 | 55 | 1001.5 |
| 20260507210749 | 65 | 97 | 1.0 | 3.0 | 0.00 | 0.28 | 0.28 | 51 | 1001.5 |
| 20260507210505 | 65 | 80 | 0.0 | 3.0 | 0.00 | 0.28 | 0.28 | 55 | 1001.6 |
| 20260507205737 | 65 | 89 | 0.0 | 2.0 | 0.00 | 0.28 | 0.28 | 55 | 1001.6 |
| 20260507205231 | 65 | 110 | 0.0 | 2.0 | 0.00 | 0.28 | 0.28 | 55 | 1001.6 |
| 20260507204726 | 65 | 67 | 0.0 | 2.0 | 0.00 | 0.28 | 0.28 | 56 | 1001.7 |
| 20260507204219 | 64 | 67 | 1.0 | 2.0 | 0.00 | 0.28 | 0.28 | 57 | 1001.7 |
| 20260507203713 | 64 | 92 | 1.0 | 4.0 | 0.00 | 0.28 | 0.28 | 59 | 1001.7 |
| 20260507203208 | 63 | 263 | 1.0 | 4.0 | 0.00 | 0.28 | 0.28 | 53 | 1001.8 |
| 20260507202702 | 63 | 218 | 1.0 | 5.0 | 0.00 | 0.28 | 0.28 | 55 | 1001.9 |
| 20260507202157 | 63 | 264 | 1.0 | 5.0 | 0.00 | 0.28 | 0.28 | 55 | 1001.8 |
| 20260507201650 | 63 | 205 | 1.0 | 4.0 | 0.00 | 0.28 | 0.28 | 53 | 1001.6 |
| 20260507201143 | 63 | 85 | 0.0 | 2.0 | 0.00 | 0.28 | 0.28 | 58 | 1001.6 |
| 20260507200638 | 62 | 60 | 0.0 | 2.0 | 0.00 | 0.28 | 0.28 | 58 | 1001.6 |
| 20260507200131 | 62 | 60 | 1.0 | 4.0 | 0.00 | 0.28 | 0.28 | 56 | 1001.7 |
| 20260507195626 | 62 | 221 | 1.0 | 4.0 | 0.00 | 0.28 | 0.28 | 54 | 1001.7 |
| 20260507195119 | 63 | 257 | 1.0 | 3.0 | 0.00 | 0.28 | 0.28 | 58 | 1001.7 |
| 20260507194613 | 62 | 293 | 1.0 | 3.0 | 0.00 | 0.28 | 0.28 | 58 | 1001.9 |
| 20260507194107 | 61 | 226 | 1.0 | 4.0 | 0.00 | 0.28 | 0.28 | 61 | 1001.8 |
| 20260507193601 | 60 | 314 | 1.0 | 4.0 | 0.00 | 0.28 | 0.28 | 57 | 1001.9 |
| 20260507193056 | 60 | 250 | 1.0 | 6.0 | 0.00 | 0.28 | 0.28 | 58 | 1002.0 |
| 20260507192550 | 61 | 226 | 1.0 | 6.0 | 0.00 | 0.28 | 0.28 | 56 | 1002.3 |
| 20260507192043 | 61 | 232 | 0.0 | 3.0 | 0.00 | 0.28 | 0.28 | 58 | 1002.4 |
| 20260507191537 | 61 | 76 | 2.0 | 10.0 | 0.00 | 0.28 | 0.28 | 64 | 1002.4 |
| 20260507191030 | 61 | 134 | 2.0 | 10.0 | 0.00 | 0.28 | 0.28 | 58 | 1002.5 |
| 20260507190526 | 61 | 274 | 1.0 | 5.0 | 0.00 | 0.28 | 0.28 | 62 | 1002.2 |
| 20260507190019 | 60 | 266 | 0.0 | 3.0 | 0.00 | 0.28 | 0.28 | 66 | 1002.0 |
| 20260507185513 | 60 | 226 | 0.0 | 2.0 | 0.00 | 0.28 | 0.28 | 64 | 1002.4 |
| 20260507185007 | 60 | 69 | 0.0 | 3.0 | 0.00 | 0.28 | 0.28 | 63 | 1002.8 |
| 20260507184501 | 60 | 330 | 0.0 | 3.0 | 0.00 | 0.28 | 0.28 | 64 | 1002.8 |
| 20260507183957 | 60 | 280 | 0.0 | 2.0 | 0.00 | 0.28 | 0.28 | 63 | 1002.8 |
| 20260507183449 | 60 | 70 | 0.0 | 2.0 | 0.00 | 0.28 | 0.28 | 61 | 1002.6 |
| 20260507182944 | 60 | 210 | 0.0 | 3.0 | 0.00 | 0.28 | 0.28 | 64 | 1002.9 |
| 20260507182437 | 59 | 210 | 1.0 | 3.0 | 0.00 | 0.28 | 0.28 | 62 | 1003.0 |
| 20260507181931 | 59 | 288 | 1.0 | 5.0 | 0.00 | 0.28 | 0.28 | 60 | 1003.1 |
| 20260507181427 | 59 | 63 | 1.0 | 5.0 | 0.00 | 0.28 | 0.28 | 62 | 1002.9 |
| 20260507180919 | 59 | 41 | 1.0 | 5.0 | 0.00 | 0.28 | 0.28 | 64 | 1002.9 |
| 20260507180412 | 59 | 253 | 0.0 | 5.0 | 0.00 | 0.28 | 0.28 | 63 | 1003.0 |
| 20260507175907 | 58 | 56 | 1.0 | 3.0 | 0.00 | 0.28 | 0.28 | 58 | 1003.0 |
| 20260507175401 | 58 | 57 | 1.0 | 3.0 | 0.00 | 0.28 | 0.28 | 56 | 1002.9 |
| 20260507174857 | 59 | 243 | 0.0 | 2.0 | 0.00 | 0.28 | 0.28 | 61 | 1003.5 |
| 20260507174349 | 59 | 245 | 0.0 | 2.0 | 0.00 | 0.28 | 0.28 | 59 | 1003.5 |
| 20260507173843 | 58 | 68 | 0.0 | 2.0 | 0.00 | 0.28 | 0.28 | 63 | 1003.7 |
| 20260507173337 | 58 | 68 | 1.0 | 3.0 | 0.00 | 0.28 | 0.28 | 61 | 1003.6 |
| 20260507172831 | 58 | 61 | 1.0 | 3.0 | 0.00 | 0.28 | 0.28 | 57 | 1003.4 |
| 20260507172548 | 58 | 229 | 1.0 | 2.0 | 0.00 | 0.28 | 0.28 | 53 | 1003.7 |
| 20260507171313 | 58 | 233 | 1.0 | 3.0 | 0.00 | 0.29 | 0.28 | 54 | 1003.9 |
| 20260507170808 | 58 | 303 | 1.0 | 3.0 | 0.00 | 0.29 | 0.28 | 56 | 1003.6 |
| 20260507170301 | 58 | 65 | 1.0 | 3.0 | 0.00 | 0.29 | 0.28 | 53 | 1003.7 |
| 20260507165757 | 58 | 82 | 0.0 | 2.0 | 0.00 | 0.29 | 0.28 | 53 | 1003.7 |
| 20260507165515 | 58 | 82 | 0.0 | 2.0 | 0.00 | 0.29 | 0.28 | 54 | 1004.0 |
| 20260507164743 | 58 | 61 | 0.0 | 2.0 | 0.00 | 0.29 | 0.28 | 56 | 1004.0 |
| 20260507164237 | 58 | 62 | 0.0 | 2.0 | 0.00 | 0.29 | 0.28 | 55 | 1004.1 |
| 20260507163949 | 58 | 60 | 0.0 | 2.0 | 0.00 | 0.29 | 0.28 | 53 | 1004.2 |
| 20260507163226 | 58 | 111 | 0.0 | 1.0 | 0.00 | 0.29 | 0.28 | 55 | 1004.4 |
| 20260507162716 | 58 | 226 | 0.0 | 2.0 | 0.00 | 0.29 | 0.28 | 55 | 1004.3 |
| 20260507162211 | 57 | 226 | 0.0 | 2.0 | 0.00 | 0.29 | 0.28 | 56 | 1004.3 |
| 20260507161705 | 57 | 77 | 0.0 | 2.0 | 0.00 | 0.29 | 0.28 | 56 | 1004.3 |
| 20260507161158 | 57 | 239 | 0.0 | 2.0 | 0.00 | 0.29 | 0.28 | 60 | 1004.4 |
| 20260507160917 | 57 | 239 | 0.0 | 2.0 | 0.00 | 0.29 | 0.28 | 59 | 1004.5 |
| 20260507160146 | 56 | 238 | 1.0 | 3.0 | 0.00 | 0.29 | 0.28 | 58 | 1004.6 |
| 20260507155640 | 56 | 127 | 1.0 | 3.0 | 0.00 | 0.29 | 0.28 | 58 | 1004.7 |
| 20260507155134 | 56 | 77 | 0.0 | 3.0 | 0.00 | 0.29 | 0.28 | 59 | 1004.8 |
| 20260507154852 | 56 | 89 | 0.0 | 1.0 | 0.00 | 0.29 | 0.28 | 63 | 1004.9 |
| 20260507154124 | 56 | 89 | 0.0 | 2.0 | 0.00 | 0.29 | 0.28 | 65 | 1004.8 |
| 20260507153619 | 56 | 89 | 0.0 | 2.0 | 0.00 | 0.30 | 0.28 | 65 | 1004.8 |
| 20260507153119 | 55 | 82 | 0.0 | 3.0 | 0.00 | 0.30 | 0.28 | 65 | 1004.7 |
| 20260507152616 | 55 | 110 | 0.0 | 4.0 | 0.00 | 0.30 | 0.28 | 64 | 1004.5 |
| 20260507152117 | 55 | 98 | 0.0 | 4.0 | 0.00 | 0.30 | 0.28 | 63 | 1004.6 |
| 20260507151614 | 55 | 86 | 0.0 | 1.0 | 0.00 | 0.31 | 0.28 | 67 | 1004.7 |
| 20260507151114 | 55 | 86 | 0.0 | 3.0 | 0.00 | 0.31 | 0.28 | 68 | 1004.8 |
| 20260507150829 | 55 | 86 | 1.0 | 3.0 | 0.00 | 0.31 | 0.28 | 64 | 1005.0 |
| 20260507150108 | 55 | 219 | 0.0 | 3.0 | 0.00 | 0.31 | 0.28 | 66 | 1005.0 |